This is the latest recevied weather packets stored in our database for station/object KC3DGM. If no packets are shown the sender has not sent any weather packets the latest 10 day(s).
| Time | Temp. | Humidity | Pressure | Rain* | Wind** | Luminosity | Snow |
|---|---|---|---|---|---|---|---|
| 1777418846 | 17.78° C | 81% | 983.1 hPa | 0 mm | - | 19 W/m² | - |
| 1777418543 | 18.33° C | 81% | 982.9 hPa | 0 mm | - | 33 W/m² | - |
| 1777418240 | 18.33° C | 81% | 983.3 hPa | 0 mm | - | 31 W/m² | - |
| 1777417935 | 18.33° C | 81% | 983.1 hPa | 0 mm | - | 30 W/m² | - |
| 1777417632 | 18.33° C | 80% | 983.2 hPa | 0 mm | - | 31 W/m² | - |
| 1777417327 | 18.89° C | 79% | 983.2 hPa | 0 mm | - | 39 W/m² | - |
| 1777417024 | 18.89° C | 78% | 983.5 hPa | 0 mm | - | 39 W/m² | - |
| 1777416719 | 18.89° C | 78% | 983.6 hPa | 0 mm | - | 35 W/m² | - |
| 1777416415 | 18.89° C | 78% | 983.2 hPa | 0 mm | - | 37 W/m² | - |
| 1777416110 | 18.89° C | 78% | 983.4 hPa | 0 mm | - | 55 W/m² | - |
| 1777415804 | 18.33° C | 80% | 983.6 hPa | 0 mm | - | 75 W/m² | - |
| 1777415501 | 17.78° C | 81% | 983.8 hPa | 0 mm | - | 52 W/m² | - |
| 1777415197 | 18.33° C | 80% | 983.5 hPa | 0 mm | - | 45 W/m² | - |
| 1777414892 | 18.33° C | 80% | 983.7 hPa | 0 mm | - | 63 W/m² | - |
| 1777414591 | 18.33° C | 80% | 983.6 hPa | 0 mm | - | 46 W/m² | - |
| 1777414286 | 18.33° C | 80% | 983.7 hPa | 0 mm | - | 56 W/m² | - |
| 1777413981 | 18.89° C | 79% | 983.5 hPa | 0 mm | - | 55 W/m² | - |
| 1777413677 | 18.33° C | 80% | 983.6 hPa | 0 mm | - | 65 W/m² | - |
| 1777413373 | 17.78° C | 80% | 983.7 hPa | 0 mm | - | 144 W/m² | - |
| 1777413069 | 17.78° C | 81% | 983.9 hPa | 0 mm | - | 81 W/m² | - |
| 1777412764 | 17.78° C | 82% | 983.7 hPa | 0 mm | - | 60 W/m² | - |
| 1777412463 | 17.78° C | 81% | 983.7 hPa | 0 mm | - | 78 W/m² | - |
| 1777412160 | 17.78° C | 80% | 983.6 hPa | 0 mm | - | 81 W/m² | - |
| 1777411856 | 17.22° C | 81% | 983.9 hPa | 0 mm | - | 94 W/m² | - |
| 1777411555 | 17.78° C | 80% | 983.6 hPa | 0 mm | - | 72 W/m² | - |
* Rain latest hour (hover to see other rain measurements)
** Current wind speed in m/s (hover to see current wind gust speed)